Regional Weather Roundup
Issued by NWS Cleveland, OH

Home | Current Version | Previous Version | Text Only | Print | Product List | Glossary On
Versions: 1 2 3 4 5 6 7 8 9 10 11 12 13 14 15 16 17 18 19 20 21 22 23 24 25 26 27 28 29 30 31 32 33 34 35 36 37 38 39 40 41 42 43 44 45 46 47 48 49 50
975
ASUS41 KCLE 241202
RWRCLE
OHIO REGIONAL WEATHER ROUNDUP
NATIONAL WEATHER SERVICE CLEVELAND, OH
800 AM EDT TUE MAY 24 2016

NOTE: "FAIR" INDICATES FEW OR NO CLOUDS BELOW 12,000 FEET WITH NO
SIGNIFICANT WEATHER AND/OR OBSTRUCTIONS TO VISIBILITY.

OHZ001>008-015>018-024>027-034-035-043-044-241300-
   NORTHWEST OHIO

CITY           SKY/WX    TMP DP  RH WIND       PRES   REMARKS
DEFIANCE       SUNNY     57  50  77 CALM      30.07R
FINDLAY        SUNNY     60  50  69 S5        30.07R
TOLEDO EXPRESS SUNNY     57  49  74 SW3       30.05R
TOLEDO EXEC    SUNNY     60  49  66 W7        30.07R
LIMA           SUNNY     61  49  64 SW6       30.08R
$$

OHZ009>014-019>023-028>033-038-089-241300-
   NORTHEAST OHIO

CITY           SKY/WX    TMP DP  RH WIND       PRES   REMARKS
CLE-HOPKINS    SUNNY     59  49  69 SW5       30.08R
CLE-LAKEFRONT  SUNNY     63  49  60 S8        30.05R
CUY CO. ARPT   SUNNY     64  50  59 SW7       30.06R
LORAIN-ELYRIA  SUNNY     58  50  75 SW3       30.08R
ASHTABULA      SUNNY     56  50  80 CALM      30.07R
AKRON-CANTON   SUNNY     59  49  69 SW5       30.08R
WOOSTER        SUNNY     57  53  86 CALM      30.09R
MANSFIELD      SUNNY     59  51  75 SW3       30.09R
YOUNGSTOWN     SUNNY     57  51  80 CALM      30.07R
$$

OHZ042-051>053-060>062-070>072-077>081-241300-
  SOUTHWEST OHIO

CITY           SKY/WX    TMP DP  RH WIND       PRES   REMARKS
CINC-COVINGTON MOSUNNY   57  53  86 CALM      30.10R
CINC-LUNKEN    SUNNY     55  54  96 CALM      30.12R
HAMILTON       SUNNY     57  53  86 CALM      30.11R
DAYTON         MOSUNNY   61  51  70 SW7       30.11R
WRIGHT-PAT AFB NOT AVBL
DAYTON GENERAL SUNNY     59  51  75 S5        30.10R
WILMINGTON     SUNNY     60  53  77 SW5       30.11R
$$

OHZ036-037-039>041-045>050-054>059-063>069-073>076-082>088-241300-
  CENTRAL AND SOUTHEAST OHIO

CITY           SKY/WX    TMP DP  RH WIND       PRES   REMARKS
COLUMBUS       SUNNY     57  52  83 S3        30.09R
OSU AIRPORT    SUNNY     61  53  75 SW3       30.09R
BOLTON FIELD   SUNNY     57  54  88 CALM      30.10R
RICKENBACK AFB NOT AVBL
NEWARK         SUNNY     56  52  86 CALM      30.09R
MARION         SUNNY     57  52  83 S5        30.09R
LANCASTER      SUNNY     57  53  86 CALM      30.10R
ZANESVILLE     SUNNY     56  52  86 CALM      30.10R
NEW PHILLY     SUNNY     56  51  84 SE3       30.09R
$$




USA.gov is the U.S. government's official web portal to all federal, state and local government web resources and services.